Retour au catalogue

CZ-4 DEB

ActifSSO
NORAD 29509·DEBRIS·🇨🇳 China

Lancé Oct 23, 2006 depuis Taiyuan Satellite Launch Center

Loading…

Prochains Passages (prochaines 24 heures)

TLE

FraisSource: Space-Track

Époque: Sep 14, 2026, 02:55 UTC

1 29509U 06046E   26257.12164664  .00001540  00000-0  10907-3 0  9993
2 29509  97.6272 313.1109 0034073 293.2342  66.5299 15.05892850 81874

Suivez CZ-4 DEB en temps réel avec AllMySat

Download on the App Store